sat.trackr.live / text

‹ back to catalog

STARLINK-31035

NORAD 58532 · 2023-192B

PAYLOAD ACTIVE UNKNOWN

§ Identity

Operator
Country
US
Launch date
2023-12-08
Launch site
AFWTR
Launch vehicle
Mass (kg)
RCS (m²)

Purposes: comms

External: N2YO · Heavens-Above · Gunter

§ Orbital elements

Epoch: 2026-09-19T11:00:32.969088Z

Period
93.85 min
Inclination
53.1570°
Eccentricity
0.0000819
Mean motion
15.34401772 rev/d
Perigee alt
462.1 km
Apogee alt
463.3 km
Semi-major
6,840.8 km
B*
1.0388e-4
RAAN
226.2580°
Arg perigee
96.8639°
Mean anomaly
263.2457°
Rev number
15,588

§ Raw data

STARLINK-310351 58532U 23192B   26262.45871492  .00003136  00000+0  10388-3 0  99932 58532  53.1570 226.2580 0000819  96.8639 263.2457 15.34401772155880

JSON: /api/v1/satellites/58532 · /tle

For live sub-satellite position, see the globe view (requires WebGL).

§ Visibility from observer

Set your observer location to see the next 7 days of passes ≥ 10°. The values pass through the URL so the page stays shareable.

No JS? Fill the form by hand. The geolocation button needs JavaScript.